EW3266 Weather Reports


time (UTC)temp
F
wind
direction
speed
knots
gust
knots
rain 1hr
in
rain 24hr
in
rain mn
in
humidity
%
barometer
mb
20210127131619 33 34 1.7 8.7 0.00 0.00 0.00 76 1017.9
20210127124608 33 167 6.1 10.4 0.00 0.00 0.00 74 1018.2
20210127123107 34 94 9.6 14.8 0.00 0.00 0.00 75 1018.3
20210127121600 32 100 12.2 22.6 0.00 0.00 0.00 81 1018.5
20210127120051 33 120 11.3 26.1 0.00 0.00 0.00 78 1018.6
20210127114548 33 101 14.8 20.9 0.00 0.00 0.00 77 1018.8
20210127113029 33 109 13.0 20.0 0.00 0.00 0.00 75 1019.6
20210127111535 33 140 8.7 21.7 0.00 0.00 0.00 71 1019.3
20210127110020 33 103 5.2 13.0 0.00 0.00 0.00 70 1019.6
20210127104646 33 165 6.1 13.0 0.00 0.00 0.00 69 1019.6
20210127104524 33 157 6.1 13.9 0.00 0.00 0.00 68 1019.7
20210127101639 31 120 3.5 7.0 0.00 0.00 0.00 64 1019.6
20210127101555 31 121 2.6 4.3 0.00 0.00 0.00 65 1019.6
20210127100124 32 200 0.9 8.7 0.00 0.00 0.00 62 1019.5
20210127094629 32 114 6.1 9.6 0.00 0.00 0.00 64 1019.3
20210127093059 32 67 4.3 10.4 0.00 0.00 0.00 62 1019.5
20210127091712 31 75 4.3 7.8 0.00 0.00 0.00 63 1019.7
20210127090104 31 71 1.7 3.5 0.00 0.00 0.00 62 1019.9
20210127084548 32 142 1.7 5.2 0.00 0.00 0.00 60 1019.9
20210127083059 31 163 2.6 5.2 0.00 0.00 0.00 64 1020.1
20210127061604 28 182 1.7 5.2 0.00 0.00 0.00 69 1019.7
20210127060149 28 158 2.6 6.1 0.00 0.00 0.00 70 1019.3
20210127054619 27 198 2.6 4.3 0.00 0.00 0.00 71 1019.5
20210127053120 27 86 3.5 6.1 0.00 0.00 0.00 72 1019.4
20210127051602 26 118 1.7 3.5 0.00 0.00 0.00 74 1019.6
20210127050112 27 82 0.0 2.6 0.00 0.00 0.00 73 1019.8
20210127044543 26 67 0.9 3.5 0.00 0.00 0.00 71 1019.9
20210127043132 24 136 2.6 4.3 0.00 0.00 0.00 71 1019.6
20210127041618 22 78 0.0 1.7 0.00 0.00 0.00 72 1019.4
20210127041516 22 78 0.0 1.7 0.00 0.00 0.00 72 1019.4
20210127040047 22 50 1.7 3.5 0.00 0.00 0.00 73 1019.1
20210127034556 22 158 0.0 1.7 0.00 0.00 0.00 73 1019.0
20210127033039 22 152 0.9 3.5 0.00 0.00 0.00 72 1019.1
20210127031542 22 166 2.6 6.1 0.00 0.00 0.00 75 1018.9
20210127030029 22 173 3.5 6.1 0.00 0.00 0.00 76 1018.9
20210127024530 22 150 3.5 5.2 0.00 0.00 0.00 76 1018.7
20210127023103 23 145 2.6 4.3 0.00 0.00 0.00 76 1018.8
20210127021521 24 162 3.5 6.1 0.00 0.00 0.00 79 1018.7
20210127020040 24 135 1.7 5.2 0.00 0.00 0.00 77 1018.4
20210127014556 24 148 2.6 4.3 0.00 0.00 0.00 79 1018.3
20210127013022 26 186 2.6 6.1 0.00 0.00 0.00 80 1018.4
20210127011525 26 209 2.6 3.5 0.00 0.00 0.00 79 1018.3
20210127010032 28 195 1.7 3.5 0.00 0.00 0.00 78 1018.4
20210127003340 32 275 5.2 9.6 0.00 0.00 0.00 72 1018.2
20210127001638 32 270 8.7 11.3 0.00 0.00 0.00 74 1018.4
20210127000247 32 273 10.4 12.2 0.00 0.00 0.00 74 1018.2
20210126234643 33 269 10.4 13.9 0.00 0.00 0.00 74 1018.0
20210126233542 33 297 9.6 13.0 0.00 0.00 0.00 74 1018.1
20210126231557 33 272 12.2 16.5 0.00 0.00 0.00 74 1018.2
20210126230123 33 274 13.0 16.5 0.00 0.00 0.00 73 1017.9
20210126224631 33 283 10.4 13.9 0.00 0.00 0.00 73 1017.8
20210126223058 33 288 10.4 13.9 0.00 0.00 0.00 74 1017.8
20210126221541 33 286 10.4 13.9 0.00 0.00 0.00 74 1017.8
20210126220029 33 276 8.7 13.9 0.00 0.00 0.00 74 1017.8
20210126214524 32 273 8.7 13.9 0.00 0.00 0.00 74 1017.7
20210126213009 32 297 8.7 15.6 0.00 0.00 0.00 74 1017.5
20210126211505 32 296 8.7 14.8 0.00 0.00 0.00 78 1018.1
20210126210230 32 284 11.3 13.0 0.00 0.00 0.00 72 1017.8
20210126204814 32 303 9.6 13.0 0.00 0.00 0.00 71 1018.2
20210126203213 32 290 9.6 15.6 0.00 0.00 0.00 72 1018.3
20210126190023 31 284 12.2 17.4 0.00 0.00 0.00 69 1018.4
20210126184524 30 265 9.6 15.6 0.00 0.00 0.00 70 1018.6
20210126183033 30 247 12.2 16.5 0.00 0.00 0.00 71 1018.6
20210126180150 29 263 13.0 16.5 0.00 0.00 0.00 75 1018.3
20210126180037 29 276 12.2 17.4 0.00 0.00 0.00 75 1018.3
20210126173155 29 241 13.9 17.4 0.00 0.00 0.00 76 1017.6
20210126171627 28 261 12.2 16.5 0.00 0.00 0.00 77 1017.5
20210126170102 28 277 13.9 19.1 0.00 0.00 0.00 78 1017.5
20210126164713 28 266 11.3 13.9 0.00 0.00 0.00 79 1017.1
20210126160059 27 258 13.0 18.2 0.00 0.00 0.00 83 1016.2
20210126154535 27 263 13.9 17.4 0.00 0.00 0.00 85 1016.1
20210126153026 26 267 13.0 20.0 0.00 0.00 0.00 85 1015.9
20210126151534 26 258 14.8 18.2 0.00 0.00 0.00 86 1015.7
20210126150029 26 273 10.4 14.8 0.00 0.00 0.00 88 1015.4
20210126143231 26 270 13.9 19.1 0.00 0.00 0.00 90 1014.8
20210126143033 26 273 14.8 19.1 0.00 0.00 0.00 91 1014.8
20210126141719 26 276 15.6 20.0 0.00 0.00 0.00 90 1014.5
20210126140147 26 262 15.6 20.9 0.00 0.00 0.00 91 1014.1
20210126134604 26 260 15.6 20.0 0.00 0.00 0.00 91 1013.6